STARLINK-32786, 62528

Orbit data source: Space-Track

STARLINK-32786, 62528 is a payload satellite owned by SpaceX/Seattle (US) in LEO that was launched on Wed, 08 Jan 2025 UTC via an FALCON 9 launch vehicle from the Air Force Eastern Test Range (AFETR). Payload-class satellites include a variety of spacecraft equipped with specific instruments for various scientific and technological missions. These include communications satellites like Starlink; space stations such as the ISS; scientific satellites like the Hubble; Earth observation satellites from companies like Planet Labs, Umbra, and HawkEye 360; GPS; miniature CubeSats for education and research; and military/defense satellites.

Loading next visibility...
Identifier
62528, 2025-004T
Orbit
LEO
Country
Flag of USUS
Related business
Manufacturer
SpaceX/Seattle
Mission
Operational Commercial Communications
Bus & Motor
STARLINK V2M, Unknown motor
Mass
730 kg wet, ~700 kg dry
Launch date (UTC)
2025-01-08 (2 years ago)
Launch vehicle
FALCON 9
Launch site
Air Force Eastern Test Range (AFETR)
Object type
Payload
Rocket body
Debris
Shape & HBR
Box + 2 Pan, 17.7 m
Radar Cross Section
33.884 m², Large (>1 m²)

Expand to show TLE details & history
Last TLE update: 18 hours ago

TLE from 18 hours ago
0 STARLINK-32786
1 62528U 25004T   26254.38860105  .00013581  00000-0  50194-3 0  9994
2 62528  43.0012 250.7294 0001619 259.5840 100.4829 15.27593937 93911
Epoch: 2026-09-11T09:19Z
TLE epoch observation values (Epoch: 2026-09-11T09:19:35.130Z)
Latitude
-0.00004°
Longitude
120.42031°
Altitude
482.985 km
Speed
7.626 km/s
True Right ascension
16h 42m 55s
True Declination
0° 00' 00"
Sunlit
Object was in daylight at epoch
Visualization orbit readout
Latitude
Unknown
Longitude
Unknown
Altitude
Unknown
Speed
Unknown
Apparent Right ascension
Unknown
Apparent Declination
Unknown
Sunlit
N/A
Visualization observer readout
Local Sidereal Time
20:05:37
Azimuth
Unknown
Elevation
Unknown
Doppler factor
Unknown
Orbital elements
Apogee altitude
486.063 km
Perigee altitude
483.841 km
Semi-major axis
6,863.089 km
Eccentricity
0.00016
Inclination
43.0012°
RAAN
250.7294°
Arg. of periapsis
259.584°
True anomaly
100.50114°
Mean anomaly
100.4829°
Eccentric anomaly
100.49202°
Mean motion
3.81737 °/min
Orbital period
94.31 mins
BSTAR
0.00050194
Loading maneuver chart data...
Computing Atmospheric mass density...
Loading historical data...
Loading historical data...
Loading historical data...
Loading historical data...
Loading historical data...
Loading historical data...
Loading historical data...

Documentation

Showing up to 5 results
|